Lid_Strength_Index
13 16 19 16 15 14 15 15 16 14 12 13 14 14 12 10 10 10 10 9 9 8 6 5 5 6 8 9 7 8 7 5 2 1 2 2 2 1 1 0 0 -0 0 0
17 21 14 12 12 14 15 15 16 14 13 13 14 14 12 11 11 12 12 11 10 9 7 5 5 6 8 8 9 8 7 6 4 1 2 2 2 1 1 0 0 0 0 0
15 14 11 13 14 16 17 17 17 16 14 13 14 16 14 12 12 12 12 11 11 10 10 8 6 6 7 9 10 9 8 7 2 1 2 2 2 2 2 2 1 0 0 -0
15 12 13 14 16 15 19 14 14 15 17 20 14 21 16 14 13 13 13 12 12 11 10 9 7 7 7 7 9 9 9 6 2 2 2 3 3 4 2 2 1 1 0 0
17 14 14 17 14 13 16 13 15 16 17 17 21 20 19 15 16 15 13 13 12 11 10 9 8 7 6 7 8 8 5 5 5 4 2 2 3 3 2 2 1 1 0 0
16 12 13 13 12 12 13 17 17 18 19 24 22 21 22 19 17 15 14 13 12 12 10 8 7 7 7 6 6 6 5 6 5 5 4 2 2 3 3 2 2 2 1 1
18 18 14 12 14 13 15 22 28 27 28 26 23 19 22 16 15 15 15 13 12 12 10 8 9 9 5 4 3 5 5 5 4 4 4 3 2 3 2 2 2 2 2 2
23 21 19 13 14 17 18 18 24 28 27 23 20 22 17 13 14 14 14 13 12 12 10 8 8 7 5 4 4 5 6 7 6 5 4 4 3 3 3 2 2 2 2 2
21 22 14 13 12 15 19 21 16 20 24 23 21 18 15 14 16 15 15 13 13 12 11 9 8 7 7 5 5 5 5 5 6 6 5 6 5 5 6 7 7 8 8 8
18 20 19 16 12 14 18 16 22 20 26 30 26 29 24 19 18 16 15 14 13 12 11 10 9 8 7 7 6 6 6 6 7 7 7 7 7 7 9 8 9 8 9 10
18 18 19 15 20 18 18 20 19 18 18 24 26 25 16 17 16 16 15 13 13 12 11 10 9 9 8 8 7 7 8 8 8 8 8 9 10 10 10 11 11 11 11 11
14 17 19 20 15 13 16 16 16 20 22 19 20 21 14 15 15 15 14 13 12 12 11 10 10 10 10 10 9 9 9 9 9 9 10 10 11 11 12 12 13 12 12 12
14 22 22 19 16 15 17 14 15 16 16 20 22 21 14 15 16 14 14 14 13 12 12 11 11 11 11 10 10 10 10 11 11 11 11 12 12 13 13 13 13 13 13 13
12 16 21 22 20 18 18 16 16 17 23 20 20 20 17 18 17 16 15 14 14 13 13 13 13 12 11 10 10 11 12 11 12 12 13 13 14 14 14 14 14 14 14 14
16 25 19 18 18 18 16 18 18 20 18 20 19 19 18 17 18 17 15 14 15 14 13 14 13 13 12 12 12 12 12 12 12 13 14 14 14 15 15 14 15 15 15 15
14 25 21 24 16 15 16 15 17 18 19 21 18 18 14 14 15 17 16 16 15 15 14 14 14 13 13 14 14 13 14 14 14 14 14 15 16 16 16 15 16 16 15 16
18 23 27 26 20 21 21 20 20 19 19 19 20 17 15 16 16 17 17 16 16 16 16 15 15 16 16 16 15 15 15 14 15 15 16 15 16 16 17 16 16 16 16 16
23 26 28 23 25 27 18 15 18 20 17 19 17 17 15 15 15 15 16 17 17 16 17 16 16 17 17 16 16 16 16 16 16 17 17 16 16 17 16 17 17 17 16 16
14 23 27 20 21 21 17 17 17 19 18 16 17 17 15 14 14 15 16 16 16 16 17 17 17 17 17 17 16 16 17 17 17 17 17 17 17 17 17 18 17 17 17 17
16 17 24 29 27 27 18 17 16 16 22 15 15 16 16 16 19 18 17 16 17 17 17 18 18 18 18 18 17 17 17 17 18 17 17 17 17 17 17 17 17 17 17 18
31 32 28 33 28 22 17 16 15 23 19 15 15 16 16 17 16 17 17 17 17 17 18 18 19 20 20 19 18 19 19 19 18 17 17 17 17 17 17 17 18 18 18 18
23 26 29 32 29 24 16 16 18 16 15 15 15 15 16 16 16 16 17 18 19 20 20 19 21 22 22 21 20 20 21 21 19 19 19 19 19 18 18 18 18 18 19 18
23 20 22 19 19 15 16 15 14 14 14 15 15 15 16 16 18 19 18 19 20 21 20 21 22 22 24 24 24 23 24 23 21 21 20 21 20 19 18 19 18 18 18 18
20 20 21 20 19 17 15 15 14 14 14 14 14 15 16 18 19 19 20 20 22 23 23 24 23 23 23 24 24 25 24 23 23 22 21 20 20 20 20 18 18 19 19 19
20 19 21 20 19 20 17 16 14 15 16 17 19 18 17 17 18 19 20 21 22 24 25 26 26 25 26 26 26 27 26 25 22 22 21 21 21 21 20 18 19 18 19 18
20 19 19 18 16 14 15 14 16 17 17 17 18 20 21 19 17 19 21 23 23 24 24 24 24 25 26 26 26 26 26 24 23 21 21 22 21 21 20 17 15 11 11 11